Location: Casale Col Cavaliere
(41.6333°N, 12.6833°E)
Time: 20:27:55
(UTC+00:00)

Daily predictions for brighter satellites

Satellite Brightness Start Highest point End
(mag) Time Altitude Azimuth Time Altitude Azimuth Time Altitude Azimuth
CORIOLIS 4.2 16:45:14 10° SSE 16:50:34 89° WSW 16:55:58 10° NNW
Cosmos 1758 Rocket 3.9 16:46:20 10° N 16:50:48 77° W 16:55:16 10° S
Cosmos 2082 Rocket 3.7 16:47:19 10° N 16:51:08 18° NE 16:54:54 10° E
USA 238 DEB 4.4 16:49:21 10° S 16:55:01 30° ESE 17:00:46 10° NE
USA 238 4.4 16:49:29 10° S 16:55:07 30° ESE 17:00:53 10° NE
Abrixas rocket 2.0 16:52:19 10° SW 16:55:22 70° SSE 16:58:26 10° ENE
SL-4 R/B 3.2 16:55:03 10° WNW 16:58:42 39° SW 17:02:06 10° SSE
Cosmos 968 Rocket 4.2 16:55:33 10° NNW 17:00:44 60° WSW 17:05:53 10° S
COSMOS 2406 3.3 16:56:36 10° NNW 17:02:18 57° ENE 17:07:55 10° SE
Cosmos 1703 3.7 16:59:24 10° N 17:03:07 39° ENE 17:06:48 10° SSE
Cosmos 1844 Rocket 3.8 16:58:12 10° SW 17:03:37 46° WNW 17:09:03 10° NNE
Cosmos 489 Rocket 4.4 17:02:20 10° S 17:08:29 71° ESE 17:14:40 10° NNE
SKYMED 2 3.6 17:05:02 10° NNE 17:09:21 63° E 17:13:39 10° S
YAOGAN 1 3.0 17:05:22 10° SE 17:09:22 39° ENE 17:13:24 10° N
EO 1 Delta rocket 4.3 17:05:59 10° SE 17:10:12 37° ENE 17:14:39 10° N
Unknown 3.8 17:09:15 10° NW 17:12:06 32° NNE 17:14:07 16° E
Ariane Rocket 4.0 17:11:36 10° ESE 17:15:42 25° ENE 17:19:48 10° N
COBE Rocket 4.1 17:11:14 10° N 17:16:25 85° W 17:21:27 10° SSW
Cosmos 2228 4.0 17:13:10 10° SSW 17:17:26 52° W 17:21:41 10° N
Cosmos 1953 4.3 17:15:17 10° SW 17:18:58 32° WNW 17:22:40 10° NNW
Cosmos 1726 Rocket 4.5 17:15:10 10° SSW 17:19:27 53° W 17:23:45 10° N
NOSS 3-2 (A) 4.0 17:14:30 10° S 17:19:32 34° ESE 17:25:02 10° NE
Meteor 1-16 Rocket 4.4 17:17:10 10° SSW 17:22:43 74° W 17:28:08 10° N
FengYun 1-2 T 4.2 17:17:21 10° SSE 17:22:58 79° ENE 17:28:36 10° N
Cosmos 921 Rocket 4.4 17:22:00 10° SW 17:26:17 43° WNW 17:30:34 10° N
Shenzhou-11 Module 1.7 17:23:33 10° WNW 17:26:18 73° N 17:27:34 28° E
Meteor 1-11 4.2 17:20:39 10° N 17:26:25 68° ENE 17:32:12 10° SSE
Cosmos 1908 3.1 17:22:40 10° S 17:26:33 74° E 17:30:27 10° NNE
ATLAS 5 CENTAUR R/B 4.2 17:25:02 10° WNW 17:27:49 16° NNW 17:30:49 10° N
Cosmos 2278 Rocket 2.1 17:24:25 10° SSW 17:30:03 73° ESE 17:35:44 10° NNE
Cosmos 1242 Rocket 3.4 17:32:00 10° NNW 17:35:36 53° W 17:39:09 10° S
Cosmos 1777 Rocket 3.9 17:33:24 10° NNW 17:38:39 79° ENE 17:43:50 10° SSE
Cosmos 2058 Rocket 4.1 17:35:51 10° SSW 17:40:03 48° W 17:44:18 10° N
Cosmos 839 Rocket 4.3 17:37:29 10° NW 17:43:46 78° WSW 17:51:04 10° SSE
NOSS 3-2 (C) 4.0 17:38:57 10° S 17:43:55 32° ESE 17:46:35 23° ENE
Cosmos 1726 3.6 17:41:20 10° SSW 17:44:45 38° WNW 17:48:12 10° N
USA 116 3.4 17:43:08 10° N 17:46:21 74° WNW 17:49:49 10° SSW
CSL-04 Rocket 3.8 17:41:43 10° SSE 17:47:16 84° WSW 17:52:48 10° NNW
Lacrosse 5 rocket 4.1 17:46:50 10° W 17:49:16 16° WSW 17:51:46 10° SSW
Cosmos 1339 Rocket 4.5 17:43:41 10° S 17:49:46 85° W 17:55:57 10° N
IRS-1A Rocket 4.5 17:45:40 11° SE 17:50:41 46° ENE 17:55:56 10° N
Cosmos 44 4.0 17:50:43 10° S 17:55:05 32° ESE 17:55:05 32° ESE
Cosmos 1939 Rocket 2.8 17:52:12 13° SSE 17:55:36 64° ENE 17:59:36 10° N
COSMO-SKYMED 1 4.1 17:53:19 10° N 17:57:21 38° WNW 18:01:22 10° SW
SJ 16-02 3.7 17:55:20 10° NNE 17:55:27 10° NNE 17:55:27 10° NNE
ADEOS Rocket 4.1 17:52:20 10° NNE 17:58:50 30° E 18:04:53 10° SSE
Cosmos 1459 Rocket 4.3 17:53:39 10° N 17:59:32 42° ENE 18:02:50 24° SE
NOAA 11 4.1 17:54:31 10° SSE 17:59:56 75° ENE 18:05:23 10° N
H-2A R/B 3.5 18:04:36 22° NE 18:04:36 22° NE 18:07:34 10° NNE
Cosmos 1605 Rocket 4.3 18:00:08 10° NNW 18:06:15 65° W 18:12:15 10° S
Cosmos 1833 Rocket 2.6 18:03:45 10° NNW 18:09:25 88° WSW 18:13:53 17° SSE
Cosmos 1461 2.7 18:06:08 10° NNW 18:10:16 82° ENE 18:11:01 58° SE
Unknown 4.4 18:09:38 10° NW 18:12:01 31° N 18:12:01 31° N
Cosmos 1727 Rocket 4.0 18:07:57 10° S 18:14:06 81° W 18:20:19 10° N
CZ-2D R/B 3.7 18:12:26 10° S 18:16:14 62° W 18:20:04 10° NNW
OAO 3 Rocket 4.4 18:12:07 10° WSW 18:16:29 32° SSW 18:17:42 28° SSE
ATLAS 3B R/B 2.9 18:10:22 10° S 18:16:35 41° ESE 18:16:54 40° ESE
Cosmos 2084 Rocket 4.3 18:15:51 10° NNW 18:19:17 38° NNE 18:19:17 38° NNE
Cosmos 1898 Rocket 4.3 18:17:00 10° N 18:20:56 35° NE 18:20:56 35° NE
CZ-4 R/B 3.9 18:19:22 10° SSW 18:22:44 23° W 18:26:09 10° NW
Cosmos 1300 2.8 18:19:32 10° SSW 18:23:19 72° W 18:24:44 37° N
Cosmos 2173 Rocket 3.8 18:19:10 10° N 18:25:24 67° E 18:28:09 34° SSE
CENTAUR R/B 2.6 18:20:56 10° S 18:26:01 47° SE 18:26:01 47° SE
Cosmos 1802 Rocket 4.0 18:21:37 10° N 18:27:58 58° E 18:29:16 49° ESE
Lacrosse 5 1.8 18:24:51 10° NW 18:29:54 68° NE 18:29:56 68° NE
Abrixas rocket 4.4 18:28:45 10° WNW 18:30:26 23° NW 18:30:26 23° NW
Cosmos 2082 Rocket 2.2 18:30:11 10° NNW 18:35:55 79° WSW 18:37:44 45° S
Meteor 2-1 Rocket 4.0 18:30:37 10° S 18:36:06 86° E 18:41:42 10° N
BREEZE M DEB (TANK) 3.1 18:34:50 10° WNW 18:37:54 64° SSW 18:38:42 55° SSE
Cosmos 1076 Rocket 4.1 18:34:27 10° NNW 18:38:43 57° W 18:39:44 44° SW
Cosmos 967 Rocket 4.5 18:34:44 10° NNW 18:41:13 83° WSW 18:43:04 50° SSE
SL-24 R/B 4.5 18:36:00 10° NNE 18:41:52 89° WNW 18:46:43 10° SSW
Cosmos 1000 Rocket 4.4 18:36:42 10° S 18:42:52 89° W 18:49:10 10° N
USA 238 DEB 4.2 18:39:00 10° SW 18:45:33 56° NW 18:51:07 16° NNE
USA 238 4.2 18:39:06 10° SW 18:45:39 56° NW 18:51:10 16° NNE
Cosmos 2100 Rocket 4.0 18:43:20 10° N 18:49:30 74° W 18:53:07 26° S
Ariane Rocket 4.2 18:49:38 10° SSW 18:54:24 40° W 18:59:14 10° NNW
Gbstr 26 Del rocket 4.2 18:47:59 10° WNW 18:54:29 78° SW 18:55:35 65° SSE
In-Cosmos 22 Rocket 4.4 18:55:56 10° NNW 19:01:10 67° W 19:01:10 67° W
Cosmos 2016 Rocket 4.1 19:03:20 10° N 19:09:07 74° NW 19:09:07 74° NW
NOSS 3-2 (A) 4.4 19:04:37 10° WSW 19:10:08 43° NW 19:13:01 28° N
Cosmos 2297 4.4 19:10:01 10° SW 19:15:34 52° WNW 19:15:55 51° NW
NOSS 3-2 (C) 4.3 19:28:59 10° WSW 19:34:07 44° WNW 19:34:07 44° WNW
SJ 16-02 4.3 19:32:18 10° NNW 19:32:27 11° NNW 19:32:27 11° NNW
H-2A R/B 4.0 19:45:14 25° NW 19:45:14 25° NW 19:47:36 10° NNW
ADEOS Rocket 4.0 19:37:10 10° N 19:44:37 56° WNW 19:51:31 10° SW
ATLAS 3B R/B 4.2 20:00:52 10° WSW 20:04:15 28° W 20:04:15 28° W
H-2A R/B 4.5 19:44:04 10° WSW 20:13:11 48° SSW 20:13:11 48° SSW
